Airfield :
LOGIN :

Register | Disclaimer

   EN    FR    IT 

 










Legend :    VFR   Marginal VFR   IFR   Intensive IFR   Very Intensive IFR
Visi :
Ceiling :
>= 8 km
>= 3000ft
5 to 8 km
1000 to 3000 ft
1500m to 5 km
500 to 1000 ft
800 to 1500m
200 to 500 ft
< 800m
< 200 ft
Symbols :   Thunderstorms  Fog  Heavy snow  Heavy precipitations  Wind > 20 kt
SIGMETs :     Misc.  Thunderstorms  Icing  Turbulence  Mountain Waves  Volcanic Ashes







- Airport Elevation : 36 ft
- IATA code : LTQ
- Download approach charts


LFAT - Le Touquet

CURRENT METAR :
  • 160700Z AUTO 11005KT CAVOK 13/10 Q1017 BECMG 19010KT

EXPIRED METARs :
  • 160630Z AUTO 12005KT CAVOK 12/10 Q1016 BECMG 19010KT
  • 160600Z AUTO 13006KT CAVOK 12/10 Q1016 NOSIG
  • 160530Z AUTO 13005KT CAVOK 12/10 Q1016 NOSIG
  • 160500Z AUTO 13006KT CAVOK 12/10 Q1016
  • 160430Z AUTO 13006KT CAVOK 12/10 Q1015

TAF TAF LFAT
Valid from the 16 at 06:00 until the 16 at 15:00 UTC


160500Z 1606/1615 13005KT CAVOK
BECMG 1608/1611 19010KT
ATIS : +33 3 21 06 62 84
No reported NOTAMs for that airfield.



MET'MAP, your aeronautical weather chart ! - Copyright ORBIFLY December 2007 - Disclaimer

ORBIFLY MET'MAP TEAM :

Programming & Development : Alexandra Zaïnal
Concept & Development : Baudouin d'Aumeries
Co-Development & Prog : Marc-Olivier Méhu
Technical & hardware support : Manuel Goepfert

Contact : metmap@orbifly.com




SOURCES & CREDITS :

   NOAA